Waarnemingen

Advertentie
Mijn weer
Lille, Frankrijk (7015): temperatuur & dauwpunt: 15.10.2017 03:00:00 - 21.10.2017 03:00:00 (CEST)Lille, Frankrijk (7015): temperatuur 5cm: 15.10.2017 03:00:00 - 21.10.2017 03:00:00 (CEST)Lille, Frankrijk (7015): temperatuur -20cm & temperatuur -100cm: 15.10.2017 03:00:00 - 21.10.2017 03:00:00 (CEST)Lille, Frankrijk (7015): windsnelheid & windstoten: 15.10.2017 03:00:00 - 21.10.2017 03:00:00 (CEST)Lille, Frankrijk (7015): windrichting: 15.10.2017 03:00:00 - 21.10.2017 03:00:00 (CEST)Lille, Frankrijk (7015): luchtdruk: 15.10.2017 03:00:00 - 21.10.2017 03:00:00 (CEST)Lille, Frankrijk (7015): zicht: 15.10.2017 03:00:00 - 21.10.2017 03:00:00 (CEST)Lille, Frankrijk (7015): Zonneschijnduur: 15.10.2017 03:00:00 - 21.10.2017 03:00:00 (CEST)Lille, Frankrijk (7015): neerslag: 15.10.2017 03:00:00 - 21.10.2017 03:00:00 (CEST)
Datum & Tijd tt [°C] td [°C] tt 5cm [°C] tt -20cm [°C] tt -100cm [°C] ff [km/u] ff [kn] fx [km/u] fx [kn] dd ppp [hPa] vv [km] sd [min] rr [mm]
21.10.2017 03:00:00 10,5 7,7 9,8 13,1 15,3 18 10 29 16 ZZO 1010,5 19 0 0,0
21.10.2017 02:00:00 10,3 7,4 9,5 13,3 15,4 14 7 24 13 ZZO 1011,2 19 0 0,0
21.10.2017 01:00:00 10,7 7,6 9,9 13,4 15,4 16 9 29 16 ZZO 1011,8 19 0 0,0
21.10.2017 00:00:00 10,7 7,6 9,5 13,5 15,3 13 7 21 12 ZO 1012,2 10 0 0,0
20.10.2017 23:00:00 10,4 6,9 9,5 13,7 15,3 13 7 22 12 ZZO 1012,8 10 0 0,0
20.10.2017 22:00:00 11,5 7,0 10,8 13,9 15,4 16 8 28 15 Z 1012,8 56 0 0,0
20.10.2017 21:00:00 12,0 7,5 10,7 14,1 15,4 18 10 25 13 Z 1013,0 52 0 0,0
20.10.2017 20:00:00 12,6 7,7 11,2 14,2 15,4 12 7 24 13 ZZW 1013,0 20 0 0,0
20.10.2017 19:00:00 13,2 7,6 12,3 14,4 15,4 16 9 40 21 ZZW 1012,6 19 1 0,0
20.10.2017 18:00:00 14,8 6,9 15,0 14,5 15,4 29 16 52 28 WZW 1012,2 20 49 0,0
20.10.2017 17:00:00 15,5 7,3 15,0 14,5 15,3 28 15 66 36 ZW 1011,6 19 47 0,0
20.10.2017 16:00:00 15,8 7,0 15,4 14,3 15,3 42 23 69 37 ZW 1011,1 10 53 0,0
20.10.2017 15:00:00 15,1 9,2 14,3 14,2 15,3 32 18 58 32 ZW 1010,7 15 14 0,0
20.10.2017 14:00:00 13,9 9,1 13,4 14,2 15,3 34 18 58 31 ZW 1010,4 10 2 0,0
20.10.2017 13:00:00 13,4 9,4 12,9 14,2 15,4 31 17 53 28 ZW 1010,1 19 0 0,0
20.10.2017 12:00:00 12,8 9,1 12,6 14,2 15,4 36 19 64 35 ZZW 1009,2 20 1 0,0
20.10.2017 11:00:00 12,4 8,7 12,3 14,2 15,3 35 19 55 30 ZZW 1008,6 18 5 0,0
20.10.2017 10:00:00 12,1 8,8 11,4 14,3 15,4 35 19 57 31 ZZW 1008,0 20 24 0,0
20.10.2017 09:00:00 11,6 8,8 11,1 14,5 15,4 31 17 54 29 Z 1007,1 19 0 0,0
20.10.2017 08:00:00 12,1 8,9 11,0 14,7 15,4 32 17 48 26 ZZW 1006,2 60 0 0,0
20.10.2017 07:00:00 12,9 10,4 12,0 14,8 15,3 29 15 45 25 ZZW 1005,9 60 0 0,0
20.10.2017 06:00:00 13,7 12,3 13,0 14,9 15,4 29 16 46 25 ZZW 1005,1 44 0 0,6
20.10.2017 05:00:00 13,9 12,6 13,2 15,0 15,3 34 18 54 29 Z 1004,7 6 0 3,1
20.10.2017 04:00:00 14,2 12,8 13,3 15,1 15,4 23 12 55 30 Z 1005,1 4,4 0 4,0
20.10.2017 03:00:00 15,6 12,3 14,0 15,1 15,3 22 12 45 24 Z 1005,2 10 0 0,0
20.10.2017 02:00:00 16,1 12,3 15,4 15,2 15,4 23 13 43 23 Z 1005,5 22 0 0,0
20.10.2017 01:00:00 16,7 12,8 16,1 15,3 15,3 24 13 42 23 Z 1005,7 18 0 0,0
20.10.2017 00:00:00 17,2 12,9 16,4 15,4 15,3 23 13 35 19 Z 1005,9 15 0 0,0
19.10.2017 23:00:00 18,1 13,4 17,7 15,4 15,4 22 12 41 22 Z 1006,0 30 0 0,0
19.10.2017 22:00:00 18,6 13,2 18,2 15,5 15,3 20 11 39 21 ZZO 1005,8 56 0 0,0
19.10.2017 21:00:00 18,6 12,6 17,8 15,5 15,4 18 10 30 16 Z 1006,2 58 0 0,0
19.10.2017 20:00:00 18,6 12,1 17,3 15,6 15,4 17 9 31 17 ZZO 1006,5 58 0 0,0
19.10.2017 19:00:00 19,2 12,2 18,2 15,7 15,4 14 7 29 16 Z 1006,5 58 3 0,0
19.10.2017 18:00:00 20,6 12,6 20,1 15,7 15,4 22 12 41 22 Z 1006,3 49 7 0,0
19.10.2017 17:00:00 21,4 13,3 21,0 15,6 15,3 24 13 37 20 Z 1006,2 37 7 0,0
19.10.2017 16:00:00 21,0 13,4 21,2 15,4 15,4 26 14 53 29 Z 1006,4 39 30 0,0
19.10.2017 15:00:00 21,2 13,4 21,9 15,0 15,3 24 13 39 21 ZZO 1006,5 15 58 0,0
19.10.2017 14:00:00 20,7 13,2 21,4 14,6 15,4 26 14 45 24 ZZO 1006,9 10 60 0,0
19.10.2017 13:00:00 18,7 12,7 17,3 14,2 15,3 22 12 37 20 ZZO 1008,1 10 53 0,0
19.10.2017 12:00:00 16,3 11,7 15,3 13,9 15,4 18 10 29 16 ZO 1008,7 10 39 0,0
19.10.2017 11:00:00 14,2 11,2 14,6 13,8 15,4 17 9 27 15 ZO 1009,0 12 26 0,0
19.10.2017 10:00:00 12,9 10,6 11,4 13,7 15,3 16 8 23 12 ZO 1009,4 8 35 0,0
19.10.2017 09:00:00 11,2 9,8 9,8 13,9 15,4 11 6 17 9 ZO 1009,6 8 0 0,0
19.10.2017 08:00:00 10,6 9,4 9,6 14,0 15,4 9 5 12 7 ZO 1009,6 8 0 0,2
19.10.2017 07:00:00 11,1 9,7 10,0 14,1 15,4 8 5 11 6 ZO 1009,8 8 0 0,0
19.10.2017 06:00:00 11,6 10,2 10,3 14,3 15,4 6 3 8 4 O 1009,6 7 0 0,0
19.10.2017 05:00:00 11,5 9,9 10,6 14,4 15,4 8 4 8 5 O 1010,0 8 0 0,0
19.10.2017 04:00:00 11,5 10,1 10,9 14,6 15,4 5 3 9 5 O 1010,6 7 0 0,0
19.10.2017 03:00:00 12,0 10,7 11,0 14,8 15,4 5 3 8 4 OZO 1011,1 4,8 0 0,0
19.10.2017 02:00:00 12,4 11,1 11,5 14,9 15,4 4 2 11 6 OZO 1011,4 7 0 0,0
19.10.2017 01:00:00 13,0 11,7 11,9 15,1 15,4 5 3 10 5 ZZO 1011,8 7 0 0,0
19.10.2017 00:00:00 13,4 12,0 12,6 15,3 15,4 5 3 11 6 ZO 1011,6 6 0 0,0
18.10.2017 23:00:00 14,1 12,7 12,6 15,5 15,3 7 4 11 6 O 1012,0 6 0 0,0
18.10.2017 22:00:00 14,6 12,8 11,9 15,7 15,4 2 1 8 4 ZZO 1011,9 7 0 0,0
18.10.2017 21:00:00 15,2 12,9 13,3 15,9 15,3 5 3 9 5 ZO 1011,9 7 0 0,0
18.10.2017 20:00:00 16,4 13,7 14,9 16,1 15,4 7 4 9 5 OZO 1011,6 8 0 0,0
18.10.2017 19:00:00 18,3 14,2 17,0 16,2 15,4 6 4 11 6 Z 1011,4 13 0 0,0
18.10.2017 18:00:00 19,6 14,6 19,6 16,1 15,4 5 3 16 9 Z 1011,4 10 2 0,0
18.10.2017 17:00:00 20,6 14,3 21,2 15,9 15,3 13 7 20 11 Z 1011,5 10 33 0,0
18.10.2017 16:00:00 20,2 14,1 21,6 15,6 15,4 15 8 23 12 ZZW 1011,6 10 44 0,0
18.10.2017 15:00:00 19,9 14,0 20,7 15,2 15,3 13 7 23 12 ZZO 1011,7 15 25 0,0
18.10.2017 14:00:00 19,2 13,8 20,6 14,7 15,4 16 9 25 13 Z 1012,2 10 46 0,0
18.10.2017 13:00:00 17,9 13,2 19,3 14,4 15,4 14 8 21 11 Z 1012,7 12 60 0,0
18.10.2017 12:00:00 15,5 12,1 17,0 14,1 15,3 14 8 22 12 ZZO 1012,7 7 60 0,0
18.10.2017 11:00:00 12,9 10,8 12,7 14,0 15,4 10 5 18 10 ZZO 1013,0 2,7 49 0,0
18.10.2017 10:00:00 11,2 10,9 10,3 14,0 15,4 6 4 10 5 ZO 1013,2 0,8 28 0,0
18.10.2017 09:00:00 10,0 9,7 9,7 14,1 15,4 4 2 7 4 O 1013,0 0,1 0 0,2
18.10.2017 08:00:00 10,4 10,1 10,2 14,1 15,4 5 3 9 5 ONO 1012,8 0,1 0 0,0
18.10.2017 07:00:00 11,2 10,9 10,0 14,1 15,3 5 3 9 5 NO 1013,1 0,1 0 0,0
18.10.2017 06:00:00 10,3 9,7 9,1 14,3 15,3 4 2 10 5 ONO 1013,4 3,8 0 0,0
18.10.2017 05:00:00 11,1 10,0 9,8 14,4 15,4 8 4 11 6 ONO 1013,5 6 0 0,0
18.10.2017 04:00:00 11,5 10,1 10,7 14,6 15,3 9 5 11 6 ONO 1014,1 7 0 0,0
18.10.2017 03:00:00 12,0 10,4 10,6 14,7 15,3 8 5 14 8 NNO 1014,7 8 0 0,0
18.10.2017 02:00:00 13,0 10,9 12,4 14,8 15,3 10 5 16 8 NO 1014,8 9 0 0,0
18.10.2017 01:00:00 13,2 10,9 12,6 14,9 15,3 9 5 17 9 NNO 1015,3 10 0 0,0
18.10.2017 00:00:00 13,8 11,0 12,9 15,1 15,3 11 6 20 11 NO 1015,9 11 0 0,0
17.10.2017 23:00:00 13,8 11,0 13,2 15,2 15,3 13 7 21 11 NNO 1016,6 10 0 0,0
17.10.2017 22:00:00 14,3 10,9 13,7 15,4 15,3 13 7 21 12 NO 1017,1 12 0 0,0
17.10.2017 21:00:00 14,5 11,3 12,9 15,6 15,4 13 7 23 12 NNO 1017,3 10 0 0,0
17.10.2017 20:00:00 14,5 10,9 13,0 15,8 15,3 10 6 14 8 NNO 1018,0 13 0 0,0
17.10.2017 19:00:00 16,1 11,3 15,3 15,9 15,3 10 6 15 8 NO 1017,9 13 0 0,0
17.10.2017 18:00:00 16,9 11,2 17,1 15,9 15,3 8 5 14 7 NO 1018,4 14 0 0,0
17.10.2017 17:00:00 17,3 11,3 18,7 15,8 15,3 10 5 14 8 ONO 1018,8 12 13 0,0
17.10.2017 16:00:00 17,9 11,2 20,1 15,5 15,3 5 3 12 7 O 1019,5 10 34 0,0
17.10.2017 15:00:00 17,0 11,3 18,6 15,2 15,3 3 2 9 5 WNW 1020,2 12 0 0,0
17.10.2017 14:00:00 16,6 11,5 18,5 14,9 15,3 3 1 12 6 ZW 1021,1 13 0 0,0
17.10.2017 13:00:00 16,1 11,3 16,7 14,7 15,3 8 5 14 7 ZZW 1021,9 13 0 0,0
17.10.2017 12:00:00 14,7 12,4 15,4 14,5 15,3 9 5 14 7 Z 1022,2 10 0 0,0
17.10.2017 11:00:00 13,5 12,6 12,1 14,4 15,3 5 3 10 5 Z 1022,5 10 0 0,0
17.10.2017 10:00:00 11,9 11,4 10,6 14,5 15,3 4 2 6 3 - 1022,8 8 0 0,0
17.10.2017 09:00:00 11,3 10,8 9,0 14,6 15,3 5 3 6 3 ZZO 1022,5 3,7 0 0,0
17.10.2017 08:00:00 10,9 10,3 9,5 14,8 15,3 5 3 8 5 ZZO 1022,2 3,6 0 0,0
17.10.2017 07:00:00 11,5 10,7 9,8 15,0 15,3 5 3 7 4 ZZO 1022,2 4,2 0 0,0
17.10.2017 06:00:00 11,8 10,7 10,3 15,2 15,3 0 0 7 4 N 1022,0 3,0 0 0,0
17.10.2017 05:00:00 12,8 11,4 11,1 15,4 15,3 4 2 6 4 ZZO 1022,0 4,7 0 0,0
17.10.2017 04:00:00 13,9 11,9 12,7 15,5 15,3 8 4 13 7 ZZW 1021,8 10 0 0,0
17.10.2017 03:00:00 14,7 12,0 13,7 15,7 15,3 10 6 14 8 ZZW 1021,6 11 0 0,0
17.10.2017 02:00:00 15,4 12,5 14,5 15,9 15,3 10 6 17 9 ZW 1021,6 11 0 0,0
17.10.2017 01:00:00 16,2 13,1 15,3 16,0 15,3 11 6 22 12 ZW 1021,4 12 0 0,0
17.10.2017 00:00:00 16,9 13,8 16,3 16,1 15,3 14 8 26 14 WZW 1021,2 12 0 0,0
16.10.2017 23:00:00 17,7 14,0 15,8 16,3 15,3 12 6 16 8 ZW 1021,0 16 0 0,0
16.10.2017 22:00:00 18,0 13,9 15,2 16,5 15,3 7 4 22 12 ZW 1020,2 19 0 0,0
16.10.2017 21:00:00 19,0 14,3 17,9 16,6 15,3 16 8 19 11 Z 1019,7 19 0 0,0
16.10.2017 20:00:00 19,7 14,3 18,5 16,8 15,3 13 7 23 12 Z 1019,6 19 0 0,0
16.10.2017 19:00:00 21,9 14,5 20,9 16,9 15,3 14 8 26 14 Z 1019,0 16 0 0,0
16.10.2017 18:00:00 23,2 14,7 23,1 16,9 15,3 13 7 35 19 Z 1018,7 19 43 0,0
16.10.2017 17:00:00 24,0 14,1 24,4 16,7 15,3 16 9 33 18 Z 1018,3 10 33 0,0
16.10.2017 16:00:00 24,5 15,1 26,5 16,5 15,3 20 11 48 26 Z 1018,4 20 60 0,0
16.10.2017 15:00:00 25,0 14,8 27,3 16,1 15,2 26 14 45 24 ZZO 1018,7 10 60 0,0
16.10.2017 14:00:00 24,4 14,5 25,9 15,7 15,2 24 13 41 22 ZZO 1019,3 10 60 0,0
16.10.2017 13:00:00 22,6 14,9 23,3 15,4 15,3 24 13 40 21 Z 1020,0 10 60 0,0
16.10.2017 12:00:00 20,9 14,8 21,1 15,1 15,2 23 12 40 22 ZZO 1020,4 18 60 0,0
16.10.2017 11:00:00 18,6 14,1 18,3 15,0 15,2 18 10 29 16 ZZO 1020,8 16 60 0,0
16.10.2017 10:00:00 16,6 13,5 15,5 15,0 15,2 15 8 23 13 ZZO 1020,8 13 30 0,0
16.10.2017 09:00:00 15,3 13,0 14,2 15,1 15,3 11 6 17 9 ZZO 1020,6 11 0 0,0
16.10.2017 08:00:00 15,0 13,0 14,4 15,2 15,3 10 5 19 10 ZZO 1020,2 12 0 0,0
16.10.2017 07:00:00 15,6 13,3 14,8 15,2 15,2 10 6 19 10 ZZO 1020,2 14 0 0,0
16.10.2017 06:00:00 16,1 13,6 15,5 15,3 15,2 13 7 20 11 ZZO 1019,9 16 0 0,0
16.10.2017 05:00:00 16,9 13,8 16,4 15,3 15,2 13 7 21 11 ZZO 1020,0 10 0 0,0
16.10.2017 04:00:00 17,5 14,2 16,7 15,3 15,2 11 6 22 12 Z 1020,2 10 0 0,0
16.10.2017 03:00:00 17,6 14,5 17,2 15,3 15,2 9 5 23 12 ZO 1020,4 16 0 0,0
16.10.2017 02:00:00 18,3 14,4 16,6 15,3 15,2 13 7 30 16 Z 1020,2 10 0 0,0
16.10.2017 01:00:00 16,9 14,0 16,1 15,3 15,2 11 6 19 10 ZZO 1020,4 17 0 0,0
16.10.2017 00:00:00 16,6 13,7 15,7 15,5 15,3 8 4 22 12 ZZO 1020,7 10 0 0,0
15.10.2017 23:00:00 16,7 13,4 15,6 15,6 15,2 15 8 21 11 ZZO 1020,8 10 0 0,0
15.10.2017 22:00:00 17,0 13,5 16,0 15,7 15,2 12 7 22 12 ZZO 1020,7 18 0 0,0
15.10.2017 21:00:00 18,2 13,7 17,4 15,9 15,2 14 7 22 12 ZZO 1020,5 20 0 0,0
15.10.2017 20:00:00 19,1 14,1 18,0 16,0 15,2 11 6 24 13 Z 1020,4 19 0 0,0
15.10.2017 19:00:00 20,3 14,0 19,0 16,1 15,2 18 10 30 16 Z 1019,6 10 17 0,0
15.10.2017 18:00:00 22,4 13,7 23,3 16,1 15,2 18 10 38 21 Z 1019,5 10 60 0,0
15.10.2017 17:00:00 23,3 13,5 25,6 15,9 15,2 18 10 32 17 Z 1019,5 20 60 0,0
15.10.2017 16:00:00 23,5 13,7 26,5 15,6 15,2 18 10 31 17 Z 1019,9 10 60 0,0
15.10.2017 15:00:00 23,2 13,4 25,4 15,1 15,2 13 7 32 17 Z 1020,4 19 60 0,0
15.10.2017 14:00:00 22,0 13,6 23,9 14,7 15,2 22 12 33 18 Z 1020,7 10 60 0,2
15.10.2017 13:00:00 20,6 13,8 21,9 14,2 15,2 19 10 30 16 Z 1021,4 16 60 0,0
15.10.2017 12:00:00 18,6 13,7 18,4 13,9 15,2 16 9 31 17 ZZO 1021,6 12 60 0,0
15.10.2017 11:00:00 15,7 12,4 15,8 13,7 15,2 16 9 25 14 ZZO 1022,0 10 60 0,0
15.10.2017 10:00:00 13,4 11,5 12,3 13,8 15,2 16 9 22 12 ZZO 1022,5 13 55 0,0
15.10.2017 09:00:00 11,8 11,2 9,9 13,9 15,2 10 6 16 9 ZZO 1022,4 10 0 0,0
15.10.2017 08:00:00 10,7 10,1 9,6 14,0 15,2 10 6 15 8 ZZO 1022,4 7 0 0,0
15.10.2017 07:00:00 11,1 10,2 10,3 14,2 15,2 10 5 15 8 ZO 1022,7 5 0 0,0
15.10.2017 06:00:00 11,6 10,8 10,6 14,3 15,2 8 4 16 9 ZO 1022,9 7 0 0,0
15.10.2017 05:00:00 11,9 11,1 10,9 14,4 15,2 8 4 11 6 ZO 1022,8 7 0 0,0
15.10.2017 04:00:00 12,3 11,4 11,2 14,6 15,2 8 5 10 6 ZO 1023,1 5 0 0,2
15.10.2017 03:00:00 12,0 11,1 10,9 14,7 15,2 9 5 12 6 ZO 1023,6 4,1 0 0,0

tt = temperatuur
td = dauwpunt
tt 5cm = temperatuur 5cm
tt -20cm = temperatuur -20cm
tt -100cm = temperatuur -100cm
ff = windsnelheid
fx = windstoten
dd = windrichting
ppp = luchtdruk
vv = zicht
sd = Zonneschijnduur
rr = neerslag

Weerstations in de omgeving